Temp
74 74 74 73 72 70 69 69 69 69 69 70 71 71 71 71 70 69 68 67 67 69 69 66 66 69 69 71 68 66 65 62 59 61 62 63 63 63 63 64 66 64 63
75 75 75 73 71 69 70 69 70 70 70 71 71 71 71 71 70 69 67 66 65 64 65 64 64 67 68 69 67 67 67 63 61 59 61 61 61 63 63 64 64 68 68
76 75 74 72 71 70 70 69 70 70 71 71 71 71 71 70 70 70 70 66 65 66 67 64 66 65 66 67 66 66 66 64 63 61 60 61 61 62 62 64 66 65 70
76 75 73 72 72 71 70 70 70 71 71 72 71 71 71 71 70 70 69 66 65 66 66 67 68 66 68 66 64 66 67 63 63 60 60 59 60 60 62 62 62 69 66
75 75 73 72 72 71 70 71 71 71 72 72 71 72 71 71 71 70 70 67 67 65 68 69 69 65 60 60 65 62 65 63 61 59 59 58 58 58 61 66 66 66 66
75 75 74 73 73 71 70 71 71 71 71 72 71 71 70 71 50 54 65 68 69 69 68 68 67 62 57 55 55 56 61 64 60 61 60 58 59 66 66 66 66 67 65
75 75 75 74 73 72 72 71 70 69 70 70 70 71 69 68 48 49 53 69 66 67 69 68 68 67 66 67 55 55 55 54 58 65 67 66 65 67 67 68 69 71 69
75 76 76 77 75 73 72 71 69 69 69 69 69 70 69 67 46 48 51 67 64 64 69 70 69 69 67 68 67 68 66 66 68 71 70 69 71 71 71 71 69 67 69
76 76 76 77 75 73 72 70 69 69 69 69 69 68 68 64 46 47 59 65 65 65 69 70 71 69 49 52 67 69 70 68 53 49 50 51 51 53 64 73 71 71 68
77 77 78 78 76 74 72 70 69 70 70 72 69 70 60 64 45 46 59 69 66 66 64 63 54 63 45 51 72 71 70 68 69 69 68 59 59 57 53 73 73 72 69
79 78 77 76 75 75 71 70 69 69 68 68 68 68 68 65 60 45 50 63 67 68 67 69 68 45 44 48 53 70 66 68 60 71 70 69 69 68 71 72 73 74 71
78 77 76 75 76 74 71 70 70 69 67 66 66 68 69 68 54 45 46 53 56 66 69 68 64 46 44 46 56 44 47 58 72 71 71 70 70 70 69 69 68 69 72
76 75 75 74 75 74 72 70 71 69 71 70 70 70 69 69 68 47 45 46 50 69 71 60 46 44 43 49 45 44 49 73 73 73 73 72 72 69 66 66 65 65 64
75 74 73 73 73 73 75 74 75 72 72 73 73 72 71 70 71 70 67 64 49 63 53 60 53 53 47 57 60 59 75 75 74 74 73 71 69 68 68 69 67 65 64
75 74 72 74 72 73 75 75 76 75 73 75 75 75 72 72 71 63 64 70 71 63 62 66 68 69 70 70 71 71 73 71 72 72 70 67 68 68 67 68 68 68 65
74 74 75 76 74 76 74 71 44 50 50 47 52 66 75 58 47 46 46 45 44 44 67 69 70 71 72 72 72 71 71 65 72 71 70 69 68 68 68 68 69 68 64
75 75 77 72 75 75 75 75 72 59 47 46 47 48 51 58 44 44 42 41 41 47 73 72 73 72 73 73 73 73 73 73 73 73 72 71 70 69 64 67 67 66 63
76 58 77 77 78 77 76 76 77 75 73 72 49 54 44 46 43 41 41 46 59 57 73 74 73 74 74 73 74 74 74 72 70 71 70 70 69 68 66 66 64 62 57
77 77 79 79 78 75 78 78 78 78 77 77 74 51 49 41 40 40 42 72 71 71 72 73 75 76 74 74 74 74 73 72 70 69 69 68 68 67 66 66 62 47 49
78 64 68 78 78 77 78 78 78 77 77 77 75 75 67 57 64 64 62 68 72 74 74 74 75 75 76 75 75 73 72 68 67 68 69 68 67 68 67 62 55 49 49
81 77 67 79 79 78 79 77 78 77 77 77 77 75 51 70 74 74 71 70 72 75 75 75 76 76 76 76 74 73 72 71 71 70 68 68 67 65 63 55 51 51 46
82 80 77 80 80 79 79 79 78 78 78 78 78 75 41 70 78 77 75 74 75 76 78 76 77 78 78 77 75 73 73 71 70 68 67 65 63 61 55 55 53 48 46
81 80 77 79 80 69 74 79 78 78 79 79 80 79 65 71 76 77 75 75 75 75 77 77 76 77 78 77 76 75 73 73 70 69 63 59 60 60 57 52 50 44 42
82 80 77 78 79 78 78 76 78 66 78 79 76 77 74 73 74 75 76 76 75 75 76 76 75 76 77 75 75 75 74 75 70 64 62 60 59 53 54 51 47 44 40
82 77 76 75 76 75 75 76 77 77 76 77 77 76 76 75 76 76 76 76 76 75 75 75 75 75 74 74 74 73 62 43 63 57 65 62 53 55 54 51 44 41 39
78 75 73 75 74 74 75 74 76 75 74 75 75 76 75 74 74 74 74 75 75 74 74 74 73 72 73 73 72 57 39 41 47 47 62 57 53 49 51 45 41 40 41
MSLP
1006.29 1006.56 1006.87 1007.28 1007.82 1008.26 1008.55 1008.90 1009.14 1009.33 1009.46 1009.59 1009.61 1009.65 1009.59 1009.68 1009.83 1009.92 1009.94 1010.05 1010.06 1010.01 1010.26 1010.56 1010.69 1010.72 1010.94 1011.14 1011.55 1011.85 1012.16 1012.97 1013.71 1014.76 1015.54 1016.00 1017.10 1018.10 1019.20 1019.84 1020.28 1020.95 1021.25
1006.15 1006.49 1006.77 1007.24 1007.73 1008.11 1008.39 1008.80 1009.06 1009.12 1009.35 1009.49 1009.55 1009.58 1009.66 1009.81 1010.03 1010.04 1010.17 1010.39 1010.41 1010.42 1010.74 1010.93 1011.05 1011.17 1011.34 1011.50 1011.93 1012.12 1012.67 1013.35 1013.98 1014.89 1015.95 1016.60 1017.70 1018.90 1019.43 1020.23 1020.80 1020.92 1021.43
1006.14 1006.44 1006.79 1007.20 1007.53 1007.89 1008.32 1008.74 1008.95 1009.09 1009.24 1009.46 1009.54 1009.57 1009.76 1010.04 1010.19 1010.37 1010.39 1010.67 1010.66 1010.73 1010.82 1011.19 1011.26 1011.55 1011.74 1012.07 1012.54 1012.88 1013.37 1013.97 1014.68 1015.44 1016.37 1017.41 1018.51 1019.40 1019.91 1020.42 1020.86 1021.35 1021.62
1006.11 1006.42 1006.77 1007.14 1007.45 1007.80 1008.33 1008.68 1008.89 1008.98 1009.19 1009.38 1009.58 1009.77 1010.05 1010.34 1010.57 1010.73 1010.90 1011.03 1011.08 1011.21 1011.26 1011.41 1011.61 1011.89 1012.03 1012.43 1012.87 1013.14 1013.43 1014.33 1015.22 1015.99 1017.15 1017.93 1018.83 1019.75 1020.05 1020.48 1021.09 1021.25 1021.95
1006.06 1006.42 1006.87 1007.17 1007.57 1007.94 1008.44 1008.71 1008.87 1009.04 1009.27 1009.49 1009.72 1009.97 1010.34 1010.61 1010.85 1011.02 1011.22 1011.35 1011.37 1011.60 1011.64 1011.79 1012.01 1012.29 1012.80 1013.13 1013.17 1013.69 1014.07 1014.83 1015.61 1016.34 1017.30 1018.22 1019.11 1019.80 1019.88 1020.21 1020.55 1021.26 1022.08
1006.05 1006.40 1006.86 1007.17 1007.55 1007.97 1008.48 1008.83 1009.07 1009.21 1009.44 1009.58 1009.85 1010.14 1010.60 1011.01 1011.53 1011.70 1011.64 1011.71 1011.67 1011.68 1011.86 1012.33 1012.78 1013.19 1013.40 1013.69 1014.00 1014.30 1014.41 1015.05 1015.76 1016.39 1017.30 1017.98 1018.91 1019.15 1019.57 1020.05 1020.47 1020.72 1021.53
1005.99 1006.39 1006.78 1007.19 1007.50 1007.92 1008.36 1008.79 1009.20 1009.51 1009.71 1009.78 1010.05 1010.35 1010.76 1011.40 1012.01 1012.20 1012.17 1012.03 1012.19 1012.22 1012.24 1012.67 1012.96 1013.57 1013.85 1014.34 1014.67 1015.05 1015.47 1015.89 1016.09 1016.24 1016.73 1017.54 1018.23 1018.64 1019.20 1019.73 1020.05 1020.37 1020.75
1005.83 1006.20 1006.66 1007.05 1007.47 1007.98 1008.36 1008.74 1009.24 1009.61 1009.83 1010.06 1010.29 1010.64 1011.03 1011.66 1012.27 1012.45 1012.53 1012.50 1012.65 1012.80 1012.77 1013.02 1013.33 1013.68 1014.19 1014.51 1015.15 1015.44 1016.08 1016.59 1016.73 1016.46 1016.75 1017.12 1017.50 1018.26 1018.79 1019.21 1019.97 1020.63 1021.39
1005.51 1005.96 1006.45 1006.85 1007.44 1007.91 1008.31 1008.78 1009.24 1009.59 1009.98 1010.32 1010.57 1010.85 1011.26 1012.03 1012.57 1012.76 1012.71 1012.91 1012.92 1013.07 1013.21 1013.56 1013.88 1014.31 1014.86 1015.11 1015.44 1015.66 1016.04 1016.78 1017.58 1017.58 1017.67 1017.82 1018.24 1018.67 1018.82 1019.17 1019.61 1019.88 1020.67
1005.17 1005.72 1006.25 1006.66 1007.18 1007.74 1008.23 1008.78 1009.28 1009.59 1009.95 1010.26 1010.78 1011.01 1011.56 1012.31 1012.86 1013.05 1012.90 1012.88 1013.08 1013.29 1014.02 1014.37 1014.61 1014.93 1015.33 1015.44 1015.43 1015.63 1016.00 1016.64 1016.99 1017.44 1017.94 1018.41 1018.69 1019.38 1019.53 1018.97 1019.40 1019.41 1020.30
1004.93 1005.60 1006.20 1006.63 1007.02 1007.52 1008.24 1008.83 1009.23 1009.59 1010.01 1010.39 1010.92 1011.39 1011.75 1012.30 1012.96 1013.22 1013.33 1013.58 1013.48 1013.61 1014.13 1014.49 1015.19 1015.57 1015.78 1016.00 1016.12 1016.01 1016.28 1016.58 1017.11 1017.29 1017.74 1018.26 1018.64 1019.25 1019.29 1019.42 1019.42 1019.42 1019.97
1004.64 1005.37 1006.01 1006.54 1006.85 1007.51 1008.06 1008.69 1009.22 1009.59 1010.03 1010.47 1010.84 1011.27 1011.73 1012.36 1012.91 1013.35 1013.68 1013.77 1013.93 1014.01 1014.15 1014.80 1015.44 1015.78 1016.19 1016.42 1016.37 1016.47 1016.65 1016.81 1016.92 1017.18 1017.45 1017.85 1018.30 1018.94 1019.53 1019.80 1020.31 1020.60 1020.75
1004.35 1005.05 1005.78 1006.41 1006.88 1007.41 1007.88 1008.44 1009.01 1009.57 1009.76 1010.19 1010.48 1010.86 1011.46 1012.09 1012.77 1013.42 1013.77 1013.95 1014.24 1014.29 1014.60 1014.95 1015.55 1016.00 1016.45 1016.61 1016.74 1016.80 1016.88 1016.84 1016.87 1017.04 1017.40 1018.01 1018.63 1019.42 1020.09 1020.59 1021.07 1021.40 1021.73
1003.88 1004.69 1005.43 1006.07 1006.71 1007.26 1007.68 1008.16 1008.44 1009.02 1009.39 1009.72 1010.03 1010.45 1011.15 1011.83 1012.33 1013.03 1013.70 1014.21 1014.54 1014.69 1015.06 1015.47 1015.66 1015.91 1016.17 1016.33 1016.65 1016.92 1016.75 1016.86 1016.91 1017.02 1017.50 1018.38 1019.22 1019.72 1020.09 1020.57 1020.97 1021.64 1022.19
1003.32 1004.17 1005.00 1005.58 1006.24 1006.86 1007.33 1007.94 1008.16 1008.44 1008.75 1009.26 1009.66 1010.05 1010.62 1011.16 1011.86 1012.49 1012.99 1013.46 1013.82 1014.18 1014.77 1015.10 1015.25 1015.38 1015.60 1015.82 1016.18 1016.49 1016.72 1017.02 1017.01 1017.35 1017.89 1018.49 1018.95 1019.55 1020.21 1020.75 1021.11 1021.42 1021.78
1002.58 1003.43 1004.13 1004.81 1005.60 1006.06 1006.86 1007.94 1008.61 1008.66 1008.89 1009.25 1009.45 1009.69 1010.24 1010.81 1011.57 1012.33 1012.98 1013.37 1013.65 1014.02 1014.15 1014.29 1014.45 1014.62 1014.81 1015.17 1015.57 1015.97 1016.36 1016.73 1016.78 1017.24 1017.59 1017.98 1018.45 1019.03 1019.75 1020.41 1020.74 1021.03 1021.82
1001.67 1002.55 1003.30 1004.06 1004.81 1005.36 1006.05 1006.64 1007.54 1008.94 1009.00 1009.36 1009.75 1010.07 1010.32 1010.62 1011.42 1012.02 1012.74 1013.34 1013.61 1013.90 1013.38 1013.49 1013.57 1013.88 1014.13 1014.51 1014.85 1015.16 1015.43 1015.88 1016.39 1016.68 1017.01 1017.45 1018.02 1018.61 1019.91 1020.03 1020.53 1021.12 1021.80
1000.92 1001.81 1002.51 1003.15 1003.80 1004.50 1005.18 1005.79 1006.39 1007.10 1007.99 1008.82 1009.66 1009.92 1010.32 1010.75 1011.25 1011.99 1012.64 1013.19 1014.00 1013.95 1012.93 1012.75 1012.86 1013.08 1013.41 1013.75 1014.15 1014.50 1014.93 1015.54 1016.03 1016.28 1016.74 1017.26 1017.81 1018.37 1018.97 1019.61 1020.47 1021.21 1022.20
1000.07 1000.90 1001.52 1002.29 1003.06 1003.69 1004.37 1004.97 1005.47 1005.98 1006.64 1007.28 1008.34 1009.83 1010.25 1010.88 1011.24 1011.71 1012.02 1011.74 1011.98 1012.16 1012.16 1012.05 1012.03 1012.24 1012.62 1013.04 1013.42 1013.86 1014.31 1014.82 1015.35 1015.92 1016.46 1017.04 1017.60 1018.08 1018.68 1019.49 1020.65 1022.15 1023.23
999.11 999.74 1000.58 1001.39 1002.33 1003.11 1003.55 1004.04 1004.51 1005.06 1005.67 1006.32 1007.23 1007.92 1009.23 1010.54 1010.84 1011.08 1011.12 1010.79 1010.59 1010.62 1010.82 1011.01 1011.23 1011.57 1011.84 1012.21 1012.60 1013.10 1013.58 1014.22 1014.79 1015.16 1015.51 1016.04 1016.68 1017.41 1018.22 1019.68 1021.08 1022.04 1023.68
998.20 999.32 999.95 1000.59 1001.26 1001.90 1002.57 1003.14 1003.69 1004.24 1004.73 1005.30 1006.08 1007.01 1007.53 1008.50 1008.65 1008.95 1009.30 1009.46 1009.50 1009.52 1009.71 1010.08 1010.35 1010.68 1010.97 1011.28 1011.70 1012.12 1012.44 1012.89 1013.49 1014.18 1015.05 1015.84 1016.51 1017.02 1017.93 1019.13 1019.81 1020.47 1022.51
997.35 998.00 999.30 999.44 1000.00 1000.74 1001.23 1002.02 1002.82 1003.35 1003.78 1004.27 1005.03 1006.40 1007.18 1007.70 1007.27 1007.44 1007.69 1007.96 1008.29 1008.45 1008.62 1008.99 1009.23 1009.44 1009.68 1009.95 1010.40 1010.90 1011.31 1011.75 1012.27 1012.92 1013.55 1014.49 1015.58 1016.58 1017.94 1018.69 1020.04 1020.89 1022.05
996.47 997.18 998.18 998.70 999.23 999.73 1000.41 1000.88 1001.57 1002.21 1002.70 1003.22 1003.82 1004.76 1006.36 1006.33 1006.09 1006.15 1006.38 1006.74 1007.20 1007.53 1007.84 1008.13 1008.32 1008.46 1008.69 1009.00 1009.39 1009.73 1010.00 1010.20 1010.82 1011.71 1012.55 1013.37 1014.13 1015.22 1017.00 1017.93 1019.05 1020.27 1021.57
995.71 996.41 997.10 997.66 998.14 998.96 999.79 1000.05 1000.21 1000.79 1001.36 1001.94 1002.68 1003.27 1004.03 1004.32 1004.38 1004.79 1005.23 1005.67 1006.04 1006.42 1006.72 1006.90 1007.10 1007.19 1007.45 1007.93 1008.22 1008.53 1008.91 1009.30 1010.16 1011.12 1012.01 1012.94 1014.05 1014.73 1015.75 1017.58 1019.09 1020.29 1021.76
994.94 996.11 996.80 997.05 997.65 998.26 998.30 999.22 999.87 1000.02 1000.30 1000.83 1001.36 1002.01 1002.49 1003.09 1003.35 1003.35 1003.99 1004.51 1004.70 1005.18 1005.65 1006.05 1006.21 1006.28 1006.53 1006.76 1006.97 1007.27 1007.64 1008.56 1008.98 1009.63 1010.61 1011.69 1013.01 1014.35 1015.07 1016.87 1018.69 1020.35 1021.34
994.15 995.61 996.67 997.37 997.21 997.75 998.69 998.44 998.56 999.56 999.72 999.96 1000.46 1000.90 1001.34 1001.79 1002.14 1002.51 1002.70 1003.50 1003.88 1004.09 1004.35 1004.76 1005.14 1005.37 1005.44 1005.57 1005.97 1006.48 1007.35 1008.14 1009.00 1009.55 1010.32 1011.55 1012.79 1013.93 1015.07 1016.31 1018.32 1019.93 1021.04
Wind_Speed
7 6 6 6 6 6 5 6 6 5 5 4 3 4 4 5 4 4 4 3 3 3 3 4 5 7 5 6 5 5 7 8 9 6 9 12 16 13 11 9 8 7 5
7 5 5 6 7 6 6 5 6 6 5 4 4 5 5 5 5 5 5 5 4 5 6 7 8 6 9 8 6 9 8 10 11 13 10 11 13 12 11 10 6 6 6
7 5 6 6 6 6 6 6 6 6 6 5 5 5 6 6 6 5 6 6 4 5 7 7 8 8 9 8 8 10 9 9 10 10 7 10 7 8 9 7 7 5 5
6 6 6 5 5 6 7 7 7 7 7 6 6 6 6 6 6 6 8 6 6 7 7 7 9 9 10 10 8 11 12 11 11 9 10 10 8 5 5 7 6 6 6
7 7 6 6 6 8 7 7 8 8 7 7 7 7 6 5 5 7 8 7 7 8 7 8 7 9 11 8 7 9 12 11 10 11 10 10 7 6 7 5 7 7 6
8 8 7 8 7 8 8 7 7 8 7 7 7 7 7 5 7 7 7 7 7 8 9 9 11 12 10 13 13 11 9 13 12 10 11 11 10 10 7 8 8 8 6
9 9 8 8 8 9 8 8 7 6 6 6 6 6 6 7 6 8 4 7 6 6 9 9 9 8 11 13 13 14 13 14 8 10 13 11 13 11 10 10 9 7 8
10 10 9 9 8 9 8 7 6 6 6 6 6 6 5 5 6 7 5 6 6 5 9 10 10 10 11 12 13 11 10 8 7 6 8 10 10 12 11 8 9 10 10
11 11 10 10 9 8 8 7 6 7 7 4 5 7 7 6 5 9 8 5 7 7 8 11 11 11 9 11 11 11 10 7 7 9 10 9 7 9 8 9 9 9 7
12 11 11 11 10 9 9 7 5 6 7 5 5 6 8 8 5 5 5 7 8 8 8 5 6 10 9 7 7 6 8 7 8 7 8 9 8 8 6 3 8 7 7
11 11 10 9 9 10 9 6 7 7 7 6 6 5 7 9 7 5 5 5 6 8 8 8 6 9 9 9 6 5 5 7 6 7 7 7 8 8 5 3 3 4 6
12 12 11 9 7 8 9 8 8 9 8 7 7 6 5 7 7 5 4 6 7 7 8 6 6 9 9 6 3 9 11 7 7 7 6 6 7 6 5 5 6 5 4
12 12 12 10 8 8 10 9 8 8 7 7 6 6 5 5 6 7 5 7 5 6 5 6 10 6 8 6 7 9 8 5 5 6 6 6 6 7 10 10 11 14 14
13 12 11 11 10 8 7 8 8 8 7 7 7 7 7 6 6 6 6 5 6 5 7 5 6 6 5 6 5 5 3 4 5 5 7 7 7 8 8 9 10 9 10
13 12 11 10 12 10 8 7 8 9 9 8 7 7 8 8 8 9 9 8 7 7 8 6 5 5 5 5 4 5 4 5 6 5 8 8 8 8 7 8 8 7 7
14 12 11 10 10 10 9 7 7 3 8 3 5 8 8 3 13 13 11 9 12 15 5 6 6 6 7 7 7 7 6 6 6 7 8 9 9 10 9 8 7 6 8
15 12 11 11 11 11 10 10 10 3 3 7 7 8 7 10 12 13 11 11 12 10 7 8 8 8 8 8 7 8 8 7 7 7 8 9 9 9 10 9 8 8 8
16 14 12 12 11 11 11 11 10 10 10 9 7 8 10 9 10 11 14 13 6 5 8 8 9 8 8 9 9 8 8 7 8 8 8 9 9 10 11 10 9 10 9
15 13 13 12 12 12 11 11 11 11 10 10 8 5 7 6 8 12 18 9 10 10 10 10 9 9 9 9 9 9 10 9 8 8 8 8 9 10 10 9 8 8 7
16 16 14 13 12 12 11 11 11 11 11 10 10 10 9 8 8 9 10 10 11 11 11 11 11 10 10 9 9 9 9 9 10 10 11 11 11 11 10 10 10 10 6
14 13 15 13 13 13 12 12 11 10 10 10 11 10 13 13 12 12 11 11 11 11 12 11 10 10 10 10 10 10 11 11 11 10 8 9 10 10 12 12 14 14 11
13 13 14 15 13 14 13 13 12 11 11 11 10 9 12 12 11 11 12 12 12 12 11 12 11 11 11 11 12 12 12 12 12 13 13 12 12 13 12 15 13 10 11
13 14 14 13 13 13 12 14 13 13 13 12 11 10 10 12 12 12 11 11 11 12 11 11 11 11 11 11 11 12 12 13 13 13 12 13 16 15 14 14 14 13 11
14 14 14 13 14 14 13 13 14 15 15 14 12 11 11 12 13 13 12 11 11 11 12 12 12 15 12 11 10 11 11 11 11 12 17 13 12 15 15 14 12 13 10
12 11 12 12 12 12 13 14 13 13 14 13 12 11 11 11 12 12 11 11 11 11 12 11 11 14 17 18 16 17 12 11 16 14 14 18 19 22 18 15 15 11 13
13 9 8 9 10 11 11 12 13 13 13 12 13 12 11 11 11 11 11 11 11 10 12 10 13 18 17 15 17 13 11 13 12 16 15 15 17 15 15 18 20 11 13
Wind_Direction
168 170 170 164 165 146 146 155 157 147 140 149 156 169 164 131 121 114 102 117 150 148 117 120 150 162 137 133 121 113 110 113 112 104 118 112 107 110 109 107 112 112 125
164 168 174 156 160 157 156 158 159 145 144 154 162 156 151 126 116 115 105 122 133 125 109 109 122 135 135 127 123 114 120 123 113 123 122 111 107 113 115 119 125 126 131
159 170 152 151 157 160 153 159 152 141 140 149 153 147 133 118 111 97 96 86 102 114 118 123 126 122 136 136 128 123 116 113 116 119 105 115 111 122 117 108 104 104 106
151 159 146 143 132 142 149 155 152 137 139 140 138 133 123 117 109 115 109 103 98 100 101 113 126 134 130 131 122 126 121 116 112 111 121 118 119 100 105 133 127 134 125
148 152 134 125 117 124 137 146 139 130 130 132 136 132 124 120 121 124 110 107 107 106 108 104 111 103 99 106 120 122 124 119 120 122 121 122 127 147 152 153 143 136 119
155 152 141 131 129 129 132 134 133 131 137 132 136 137 133 115 123 114 122 121 113 117 115 107 113 111 101 95 88 86 124 130 125 126 136 144 151 161 153 163 152 155 131
162 157 151 143 138 135 136 136 137 138 143 143 134 135 134 126 145 129 127 125 115 123 118 121 112 113 128 117 99 99 91 77 85 146 145 154 164 167 158 167 165 160 122
167 164 160 154 143 139 143 137 141 143 147 127 126 131 128 119 133 135 142 114 110 119 125 126 125 134 128 132 120 122 114 125 135 129 139 154 157 159 165 157 137 112 114
171 171 168 161 155 153 147 140 138 145 141 138 116 128 133 126 145 149 151 127 124 135 123 126 131 119 117 114 122 128 127 117 77 69 75 89 106 138 141 142 150 150 132
176 177 174 173 171 170 157 147 136 142 138 141 125 130 124 128 156 157 181 140 139 123 105 98 116 124 117 111 122 132 137 136 138 130 112 99 125 121 140 184 164 163 137
175 176 175 174 177 174 155 151 145 140 133 131 125 122 134 138 161 173 144 119 135 132 141 147 126 111 102 86 73 106 104 137 128 138 121 110 129 143 162 127 156 173 156
172 175 175 174 176 167 164 150 146 143 137 136 138 140 136 143 140 175 170 140 146 142 145 143 141 144 139 120 117 118 116 133 139 140 134 122 120 125 118 112 98 91 61
174 175 176 174 171 173 170 160 154 159 153 155 156 149 149 151 154 145 149 143 141 150 152 97 95 108 115 113 105 128 150 149 144 147 141 130 121 112 119 114 101 96 81
178 180 176 175 174 174 177 176 172 173 170 170 169 160 155 159 164 163 167 153 130 113 125 96 90 102 66 100 137 154 164 169 170 162 148 129 130 142 134 135 129 123 113
181 178 180 184 184 175 187 182 189 189 184 180 186 178 170 173 178 174 172 175 171 142 133 142 150 162 164 160 160 162 171 173 180 158 157 157 153 153 151 156 152 158 139
183 181 181 184 186 188 181 176 54 2 203 188 170 187 189 152 148 166 169 139 136 153 160 171 177 183 187 183 186 181 187 187 179 173 169 167 167 171 162 167 172 165 147
186 184 182 186 186 189 191 195 195 146 149 201 183 192 211 180 170 170 149 135 157 165 204 192 194 194 199 199 198 198 197 197 179 184 180 177 173 174 167 171 170 163 149
186 173 185 194 192 193 195 198 204 202 202 200 202 206 204 180 168 142 142 134 146 221 219 210 210 207 208 207 206 207 204 188 196 189 185 181 180 173 180 177 175 167 152
182 184 190 189 194 197 198 205 207 210 210 209 178 188 144 127 134 149 168 203 205 207 213 223 223 218 212 211 213 211 207 201 195 188 186 183 184 185 185 179 160 122 106
190 183 183 185 185 195 202 208 211 213 213 214 206 208 163 156 188 186 196 209 212 212 211 216 219 221 219 217 213 211 206 195 191 190 189 187 185 188 176 155 140 135 107
189 180 187 184 191 198 201 206 208 210 214 215 218 210 177 192 204 207 201 206 214 215 216 217 219 219 220 218 214 208 206 204 204 203 193 189 180 179 168 159 154 141 129
191 187 188 197 190 195 200 202 208 211 215 217 219 203 169 210 214 213 214 213 215 217 215 216 220 222 219 216 210 211 213 211 199 194 186 178 176 166 160 156 149 134 133
189 189 192 197 199 197 189 198 204 211 218 220 222 210 185 209 218 217 218 217 215 217 216 218 221 225 224 221 219 217 215 211 203 192 180 177 171 168 164 158 152 144 147
191 195 193 197 193 197 209 205 203 205 210 215 215 214 209 207 207 217 221 218 214 217 218 218 222 225 222 219 217 217 219 215 192 182 171 172 179 162 153 152 148 143 138
182 190 199 192 199 205 192 207 216 213 209 215 214 214 211 217 218 214 219 219 214 216 220 221 224 228 227 223 218 215 206 175 189 173 175 168 161 166 153 146 141 140 142
166 177 188 212 199 199 222 209 205 218 214 211 215 217 214 210 214 218 211 220 222 218 217 217 226 227 226 226 224 211 158 164 162 168 162 159 161 156 155 143 139 139 144